Simultaneous Nadir Overpasses (SNOs) Predictions

Prediction of SNOs between GOES-17 and NOAA-20 Satellite Orbit:

Table of predicted SNOs for the next 14.0 days since TLE Epoch: 9/3/2022
Index Date Time (GOES-17) GOES-17 Lat,Lon NOAA-20 Lat,Lon Distance(km) Time Diff (sec)
1 09/04/2022 22:33:53 -0.07,-137.30 -0.14,-137.55 28.28 80
2 09/05/2022 22:17:49 -0.07,-137.30 0.91,-133.03 487.38 80
3 09/07/2022 10:36:57 0.06,-137.30 0.28,-138.30 113.54 80
4 09/08/2022 10:20:53 0.06,-137.30 -0.71,-133.77 401.88 80
5 09/09/2022 22:40:10 -0.05,-137.28 -0.46,-139.08 205.42 80
6 09/10/2022 22:24:06 -0.05,-137.27 0.53,-134.55 310.09 80
7 09/12/2022 10:43:15 0.05,-137.27 0.59,-139.83 290.93 80
8 09/13/2022 10:27:11 0.05,-137.27 -0.40,-135.30 224.39 80
9 09/14/2022 22:46:27 -0.05,-137.24 -0.83,-140.60 383.56 80
10 09/15/2022 22:30:23 -0.05,-137.23 0.23,-136.08 131.31 80
